Simultaneous Nadir Overpasses (SNOs) Predictions

Prediction of SNOs between AQUA and GOES-15 Satellite Orbit:

Table of predicted SNOs for the next 14.0 days since TLE Epoch: 10/11/2019
Index Date Time (AQUA) AQUA Lat,Lon GOES-15 Lat,Lon Distance(km) Time Diff (sec)
1 10/12/2019 10:25:17 1.12,-132.31 0.22,-128.00 489.41 80
2 10/13/2019 21:51:50 0.57,-124.19 -0.24,-127.99 432.40 80
3 10/14/2019 10:13:06 0.47,-129.36 0.23,-128.07 146.30 80
4 10/16/2019 10:00:54 -0.12,-126.39 0.23,-128.12 196.29 80
5 10/16/2019 22:22:19 -0.96,-131.59 -0.21,-128.08 399.60 80
6 10/18/2019 22:10:08 -0.30,-128.64 -0.21,-128.13 58.04 80
7 10/20/2019 21:57:56 0.30,-125.68 -0.21,-128.17 282.73 80
8 10/21/2019 10:19:12 0.76,-130.85 0.19,-128.24 296.39 80
9 10/23/2019 10:07:01 0.10,-127.90 0.19,-128.28 43.57 80
10 10/25/2019 09:54:49 -0.50,-124.93 0.19,-128.31 383.37 80




NCC Satellite Simultaneous Nadir Overpasses (SNOs) Prediction Service
